Weather Roundup
Issued by NWS Chicago, IL

Home | Current Version | Previous Version | Graphics & Text | Print | Product List | Glossary On
Versions: 1 2 3 4 5 6 7 8 9 10 11 12 13 14 15 16 17 18 19 20 21 22 23 24 25 26 27 28 29 30 31 32 33 34 35 36 37 38 39 40 41 42 43 44 45 46 47 48 49 50
000
NZUS59 KLOT 261809
HRRLOT

CHICAGO AREA WEATHER ROUNDUP
NATIONAL WEATHER SERVICE CHICAGO/ROMEOVILLE IL
100 PM CDT FRI MAY 26 2017

NOTE: "FAIR" INDICATES FEW OR NO CLOUDS BELOW 12,000 FEET WITH NO
SIGNIFICANT WEATHER AND/OR OBSTRUCTIONS TO VISIBILITY.

* THESE STATIONS ARE NOT UNDER NWS QUALITY CONTROL. THEY ALSO MAY NOT
  REPORT WEATHER SUCH AS PRECIPITATION OR FOG.

ILZ005-006-012>014-019>023-261900-
NORTHEAST ILLINOIS

CITY           SKY/WX    TMP DP  RH WIND       PRES   REMARKS
OHARE          CLOUDY    67  53  61 E13       29.82R
6HR MIN TEMP:  58; 6HR MAX TEMP:  71;

MIDWAY         CLOUDY    69  55  60 E13       29.82R
6HR MIN TEMP:  58; 6HR MAX TEMP:  69;

AURORA         CLOUDY    71  57  61 SE13      29.83R
6HR MIN TEMP:  57; 6HR MAX TEMP:  71; 6HR PCP: TRACE;

WAUKEGAN       CLOUDY    56  51  84 E6        29.85R
6HR MIN TEMP:  54; 6HR MAX TEMP:  61;

DUPAGE AIRPORT CLOUDY    68  57  68 SE10      29.81S
6HR MIN TEMP:  57; 6HR MAX TEMP:  71;

WHEELING       CLOUDY    62  54  74 E8        29.84R
6HR MIN TEMP:  55; 6HR MAX TEMP:  66;

NORTHERLY ISL    N/A     57  50  77 N3          N/A
$$

WIZ051-052-058>065-066-070>072-261900-
SOUTHEAST WISCONSIN

CITY           SKY/WX    TMP DP  RH WIND       PRES   REMARKS
MILWAUKEE      CLOUDY    58  53  84 SE7       29.85F
6HR MIN TEMP:  55; 6HR MAX TEMP:  61;

KENOSHA*       CLOUDY    59  51  75 E8        29.85R
RACINE*        CLOUDY    55  49  80 E5        29.87R
WAUKESHA       SUNNY     63  54  72 SE13      29.85S
$$

INZ001>003-010>013-019-020-261900-
NORTHWEST INDIANA

CITY           SKY/WX    TMP DP  RH WIND       PRES   REMARKS
GARY*          PTSUNNY   68  54  60 NE10      29.84R
MICHIGAN CITY* NOT AVBL
RENSSELAER*    NOT AVBL
VALPARAISO     CLOUDY    72  58  61 SE8       29.83F
$$

LMZ740>746-261900-
SOUTHERN LAKE MICHIGAN

STATION/POSITION TIME  SKY/WX   TEMP WIND        PRES    VSBY
                                AIR  DIR/SP/G
                 (UTC)          (F)  (DEG/KT/KT) (MB)    (MI)
HARRISON CRIB    1740            56   80/ 11/ 12   N/A
BURNHAM HARBOR   1800            56   60/  5/  7   N/A
CALUMET HARBOR   1742            57   50/  8/  9 1009.9R
BURNS HARBOR     1740            60   70/ 10/ 13 1010.8S
MICHIGAN CITY    1740            57   40/ 10/ 10   N/A
$$

ABBREVIATIONS USED IN REMARKS
   TC - TEMPERATURE IN CELSIUS
  WCI - WIND CHILL INDEX
   HX - HEAT INDEX
  VSB - VISIBILITY
$$




USA.gov is the U.S. government's official web portal to all federal, state and local government web resources and services.